FW0562 Weather Reports


time (UTC)temp
C
wind
direction
speed
KPH
gust
KPH
rain 1hr
cm
rain 24hr
cm
rain mn
cm
humidity
%
barometer
mb
20260507160702 15 10 0.0 0.0 0.00 0.00 0.00 56 1015.7
20260507155201 15 5 0.0 0.0 0.00 0.00 0.00 61 1015.8
20260507153701 15 5 0.0 0.0 0.00 0.00 0.00 58 1015.8
20260507152201 15 5 0.0 6.4 0.00 0.00 0.00 57 1015.7
20260507150703 15 64 0.0 0.0 0.00 0.00 0.00 54 1015.8
20260507145205 15 64 0.0 4.8 0.00 0.00 0.00 55 1015.7
20260507143701 15 15 1.6 8.0 0.00 0.00 0.00 55 1015.7
20260507142202 15 63 1.6 6.4 0.00 0.00 0.00 57 1015.8
20260507140704 15 0 1.6 6.4 0.00 0.00 0.00 56 1015.9
20260507135202 15 90 0.0 0.0 0.00 0.00 0.00 60 1016.0
20260507125135 15 193 0.0 0.0 0.00 0.03 0.00 59 1015.9
20260507122129 15 69 1.6 8.0 0.00 0.03 0.00 58 1015.8
20260507115130 15 355 1.6 8.0 0.00 0.03 0.00 57 1015.7
20260507113629 15 101 1.6 8.0 0.00 0.03 0.00 60 1015.8
20260507112128 15 88 1.6 9.7 0.00 0.03 0.00 57 1015.8
20260507110630 15 53 3.2 14.5 0.00 0.03 0.00 54 1015.8
20260507105130 15 92 3.2 11.3 0.00 0.03 0.00 58 1015.8
20260507102129 14 9 4.8 9.7 0.00 0.03 0.00 64 1015.8
20260507100629 14 95 1.6 11.3 0.00 0.03 0.00 62 1015.8
20260507095129 13 9 3.2 9.7 0.00 0.03 0.00 69 1015.7
20260507093629 13 5 3.2 8.0 0.00 0.03 0.00 68 1015.7
20260507092131 13 95 3.2 9.7 0.00 0.03 0.00 71 1015.7
20260507090628 13 84 1.6 8.0 0.00 0.03 0.00 74 1015.6
20260507085129 12 82 1.6 8.0 0.00 0.03 0.00 74 1015.5
20260507083631 12 355 1.6 11.3 0.00 0.03 0.00 72 1015.4
20260507082125 12 343 1.6 8.0 0.00 0.03 0.00 79 1015.4
20260507080612 11 42 1.6 9.7 0.00 0.03 0.00 80 1015.3
20260507075112 11 61 0.0 3.2 0.00 0.03 0.00 80 1015.2
20260507073604 11 16 0.0 0.0 0.00 0.03 0.00 82 1015.2
20260507072104 10 355 1.6 8.0 0.00 0.03 0.00 82 1015.1
20260507070601 10 350 0.0 0.0 0.00 0.03 0.00 83 1015.1
20260507065102 10 350 0.0 0.0 0.00 0.03 0.00 84 1015.0
20260507063601 10 350 0.0 0.0 0.00 0.05 0.00 87 1015.1
20260507062058 9 350 0.0 0.0 0.00 0.05 0.00 89 1014.8
20260507060550 9 350 0.0 0.0 0.00 0.05 0.00 90 1014.7
20260507055032 8 350 0.0 0.0 0.00 0.05 0.00 91 1014.5
20260507053532 8 350 0.0 0.0 0.00 0.05 0.00 91 1014.4
20260507052009 8 350 0.0 0.0 0.00 0.05 0.00 90 1014.4
20260507050521 8 350 0.0 0.0 0.00 0.05 0.00 91 1014.1
20260507045012 8 350 0.0 0.0 0.00 0.05 0.00 92 1014.1
20260507043504 8 350 0.0 0.0 0.00 0.05 0.00 92 1013.9
20260507042010 8 350 0.0 0.0 0.00 0.05 0.00 92 1013.8
20260507040504 8 350 0.0 0.0 0.00 0.05 0.00 92 1013.7
20260507035006 8 350 0.0 0.0 0.00 0.05 0.00 92 1013.5
20260507033521 8 350 0.0 0.0 0.00 0.05 0.00 92 1013.4
20260507032006 8 350 0.0 0.0 0.00 0.05 0.00 91 1013.4
20260507030507 8 350 0.0 0.0 0.00 0.05 0.00 91 1013.4
20260507025012 8 350 0.0 0.0 0.00 0.08 0.00 91 1013.3
20260507023506 8 350 0.0 0.0 0.00 0.08 0.00 91 1013.3
20260507022005 8 350 0.0 0.0 0.00 0.08 0.00 90 1013.3
20260507013520 8 350 0.0 0.0 0.00 0.08 0.00 89 1012.9
20260507010503 8 350 0.0 0.0 0.00 0.10 0.00 89 1012.9
20260507005001 8 350 0.0 0.0 0.00 0.10 0.00 87 1012.9
20260507003456 8 350 0.0 0.0 0.00 0.10 0.00 87 1012.9
20260506234929 9 350 0.0 0.0 0.00 0.13 0.00 85 1012.7
20260506231926 9 350 0.0 0.0 0.00 0.15 0.00 84 1012.7
20260506230418 9 350 0.0 0.0 0.00 0.15 0.00 84 1012.5
20260506224908 9 350 0.0 0.0 0.00 0.15 0.00 83 1012.3
20260506223407 9 350 0.0 0.0 0.00 0.18 0.00 83 1012.1
20260506221906 9 350 0.0 0.0 0.00 0.20 0.00 83 1012.1
20260506220402 9 350 0.0 0.0 0.00 0.23 0.00 83 1012.0
20260506214903 9 350 0.0 0.0 0.00 0.23 0.23 83 1012.0
20260506213354 9 350 0.0 0.0 0.00 0.23 0.23 84 1012.0
20260506211845 9 350 0.0 0.0 0.00 0.25 0.23 84 1011.9
20260506210339 9 350 0.0 0.0 0.00 0.28 0.23 84 1011.8
20260506204835 10 350 0.0 0.0 0.00 0.28 0.23 84 1011.7
20260506200331 10 53 1.6 9.7 0.00 0.33 0.23 82 1011.5
20260506194821 9 5 1.6 8.0 0.00 0.33 0.23 82 1011.4
20260506193318 9 355 0.0 0.0 0.00 0.33 0.23 81 1011.2
20260506191816 9 355 0.0 0.0 0.00 0.33 0.23 80 1010.9
20260506190304 10 355 0.0 8.0 0.00 0.36 0.23 77 1010.7
20260506184805 10 350 0.0 3.2 0.00 0.36 0.23 75 1010.7
20260506183302 11 350 0.0 6.4 0.00 0.36 0.23 73 1010.6
20260506174754 12 348 3.2 12.9 0.00 0.38 0.23 68 1009.9
20260506173248 12 11 1.6 9.7 0.00 0.38 0.23 68 1009.5
20260506171745 12 0 3.2 14.5 0.00 0.41 0.23 67 1009.4
20260506170245 13 63 1.6 9.7 0.00 0.41 0.23 69 1009.3
20260506164744 13 42 1.6 9.7 0.00 0.43 0.23 70 1009.1